Content
SEND FEEDBACK

Daily
Averages
Monthly
Summary
United States of America

PACIFIC GROVE, CALIFORNIA


Home > North America > United States > California
Elevation: 331 feet     Latitude: 36 36N     Longitude: 121 55W

WEATHER
 
SELECT A DAY
Number of Records: 197,028;   Date Range: 7/1/96 - 12/18/14
 
SHARE

PRINT THIS DATA

[ ← Previous Day ]
WEATHER ALMANAC - FEBRUARY 14, 2013
[ Next Day → ]
[ °C ]   °F
Weather ElementAverageHighLow
Temperature48.5 °F66 °F (11:54 am)37.4 °F (5:46 am)
Dewpoint41.5 °F46.9 °F (3:54 pm)36 °F (5:54 am)
Humidity79.7 %100 % (1:44 am)40 % (11:54 am)
Barometer30.22 in30.27 in (1:54 am)30.18 in (2:54 pm)
Wind Speed3.6 mph9.2 mph (7:54 am)
Weather ElementAverage
Visibility7.9 mi
Wind DirectionE (93.8 °)

Weather ElementTotal
Precipitation---
Heating Degree Days13.3 (Base 65)
Growing Degree Days1.7 (Base 50)
Averaged from 34 records on February 14, 2013
WEATHER CONDITIONS BREAKOUT
WIND DIRECTION BREAKOUT
WEATHER BY HOUR - FEBRUARY 14, 2013
[ °C ]   °F
Local TimeTemperatureDewpointHumidityBarometerVisibilityWind DirectionWind SpeedGust SpeedPrecipitationEventsConditions
1:44 AM44.6 °F44.6 °F100 %30.23 in1.8 miEast (90°)4.6 mphOvercast
1:54 AM45.0 °F44.1 °F97 %30.27 in0.5 miEast (90°)4.6 mphFogFog
2:01 AM44.6 °F44.6 °F100 %30.23 in0.2 miEast (100°)5.8 mphFogFog
2:17 AM44.6 °F42.8 °F93 %30.23 in0.8 miEast (100°)4.6 mphMist
2:22 AM42.8 °F42.8 °F100 %30.23 in2.0 miEast (100°)3.5 mphMostly Cloudy
2:38 AM42.8 °F42.8 °F100 %30.22 in10.0 miEast (100°)4.6 mphScattered Clouds
2:54 AM42.1 °F41.0 °F96 %30.26 in10.0 miCalmClear
3:54 AM39.9 °F39.0 °F97 %30.25 in10.0 miCalmClear
4:45 AM39.2 °F39.2 °F100 %30.20 in10.0 miCalmScattered Clouds
4:54 AM39.9 °F39.0 °F97 %30.25 in10.0 miCalmMostly Cloudy
5:11 AM42.8 °F39.2 °F87 %30.20 in1.2 miCalmOvercast
5:18 AM41.0 °F39.2 °F93 %30.20 in0.5 miCalmFogFog
5:24 AM39.2 °F39.2 °F100 %30.20 in2.0 miCalmOvercast
5:31 AM39.2 °F37.4 °F93 %30.20 in10.0 miEast (90°)4.6 mphMostly Cloudy
5:46 AM37.4 °F37.4 °F100 %30.20 in10.0 miEast (90°)3.5 mphScattered Clouds
5:54 AM37.9 °F36.0 °F93 %30.24 in10.0 miCalmPartly Cloudy
6:54 AM39.0 °F37.0 °F93 %30.24 in10.0 miSE (140°)4.6 mphClear
7:54 AM44.1 °F39.0 °F82 %30.25 in10.0 miEast (90°)9.2 mphClear
8:54 AM52.0 °F42.1 °F69 %30.25 in10.0 miEast (100°)4.6 mphClear
9:54 AM57.9 °F44.1 °F60 %30.26 in10.0 miWSW (250°)4.6 mphClear
10:54 AM62.1 °F39.9 °F44 %30.25 in10.0 miNE (40°)9.2 mphClear
11:54 AM66.0 °F41.0 °F40 %30.23 in10.0 miNNW (340°)3.5 mphClear
12:54 PM66.0 °F43.0 °F43 %30.21 in10.0 miVariable4.6 mphClear
1:54 PM64.0 °F46.0 °F52 %30.19 in10.0 miNW (320°)6.9 mphClear
2:54 PM64.0 °F44.1 °F48 %30.18 in10.0 miNW (320°)4.6 mphClear
3:54 PM59.0 °F46.9 °F64 %30.19 in10.0 miCalmClear
4:54 PM57.0 °F46.0 °F67 %30.19 in10.0 miNW (310°)4.6 mphClear
5:54 PM54.0 °F46.0 °F75 %30.19 in10.0 miCalmClear
6:54 PM51.1 °F43.0 °F74 %30.20 in10.0 miEast (100°)3.5 mphClear
7:54 PM51.1 °F42.1 °F71 %30.22 in10.0 miEast (80°)6.9 mphClear
8:54 PM50.0 °F42.1 °F74 %30.23 in10.0 miEast (90°)3.5 mphClear
9:54 PM50.0 °F41.0 °F71 %30.24 in10.0 miEast (90°)4.6 mphClear
10:54 PM50.0 °F39.9 °F68 %30.24 in10.0 miENE (70°)5.8 mphClear
11:54 PM50.0 °F39.9 °F68 %30.24 in10.0 miEast (90°)6.9 mphClear
Hourly data recorded from KMRY, located miles away from Pacific Grove, California







STORIES FROM OUR PARTNERS